Regional Weather Roundup
Issued by NWS Kansas City/Pleasant Hill, MO

Home | Current Version | Previous Version | Graphics & Text | Print | Product List | Glossary Off
Versions: 1 2 3 4 5 6 7 8 9 10 11 12 13 14 15 16 17 18 19 20 21 22 23 24 25 26 27

000
ASUS43 KEAX 260610
RWREAX

WEATHER ROUNDUP FOR EASTERN KANSAS AND NORTHWEST MISSOURI
NATIONAL WEATHER SERVICE KANSAS CITY/PLEASANT HILL MO
100 AM CDT TUE JUL 26 2016

KSZ040-057-103>105-MOZ028-029-037-043-260700-
...KANSAS CITY METROPOLITAN AREA...

CITY           SKY/WX    TMP DP  RH WIND       PRES   REMARKS
K.C. INTL      PTCLDY    75  69  81 NE6       30.06F
6HR MIN TEMP:  75; 6HR MAX TEMP:  83;

K.C. DOWNTOWN  CLOUDY    78  67  68 NE6       30.04S
6HR MIN TEMP:  78; 6HR MAX TEMP:  85;

LEES SUMMIT    PTCLDY    76  69  79 E5        30.06S
6HR MIN TEMP:  76; 6HR MAX TEMP:  81;

OLATHE - IXD   PTCLDY    75  69  81 NE3       30.06S
6HR MIN TEMP:  73; 6HR MAX TEMP:  85;

OLATHE - OJC   MOCLDY    75  68  78 NE3       30.05F
6HR MIN TEMP:  75; 6HR MAX TEMP:  83;

LAWRENCE       MOCLDY    74  68  81 CALM      30.05S

$$

MOZ001>008-011>017-020>025-030>033-038>040-044>046-053-054-260700-
...NORTHERN AND CENTRAL MISSOURI...

CITY           SKY/WX    TMP DP  RH WIND       PRES   REMARKS
ST. JOSEPH     PTCLDY    68  66  93 N3        30.06S
6HR MIN TEMP:  68; 6HR MAX TEMP:  85;

MOSBY          MOCLDY    70  70 100 CALM      30.05S FOG
WHITEMAN AFB   MOCLDY    74  74 100 NE3       30.03F
6HR MIN TEMP:  74; 6HR MAX TEMP:  82;

CLINTON        PTCLDY    73  72  94 NE3       30.04S
SEDALIA        PTCLDY    73  70  90 CALM      30.05F
6HR MIN TEMP:  73; 6HR MAX TEMP:  81;

WARSAW         NOT AVBL
CHILLICOTHE      N/A     72  69  90 CALM      30.07F
6HR MIN TEMP:  72; 6HR MAX TEMP:  86;

KIRKSVILLE     FOG       65  64  97 CALM      30.07F VSB 1/2
6HR MIN TEMP:  65; 6HR MAX TEMP:  83;


$$

MOZ041-047>049-056>058-063>065-088>090-097-260700-
...EASTERN AND SOUTHERN MISSOURI...

CITY           SKY/WX    TMP DP  RH WIND       PRES   REMARKS
ST. LOUIS INTL CLOUDY    79  74  84 N6        30.02S
6HR MIN TEMP:  80; 6HR MAX TEMP:  85;

SPIRIT OF STL  CLOUDY    76  75  97 W3        30.01F
COLUMBIA       PTCLDY    71  69  93 E5        30.04F
JEFFERSON CITY CLEAR     71  70  96 CALM      30.03F
ROLLA          CLEAR     72  70  93 NE5       30.03F
OSAGE BEACH    CLOUDY    73  71  93 NE3       30.04F
SPRINGFIELD    CLEAR     75  71  87 NE6       30.03F
BRANSON        CLOUDY    73  72  94 CALM      30.04S
JOPLIN         CLEAR     74  73  97 E3        30.04R
WEST PLAINS    CLOUDY    76  73  91 CALM      30.05F

$$

IAZ060-094-KSZ022-034>040-054-083-096-NEZ052-066-093-260700-
...KANSAS...SOUTHEAST NEBRASKA AND IOWA...

CITY           SKY/WX    TMP DP  RH WIND       PRES   REMARKS
TOPEKA         MOCLDY    74  67  78 CALM      30.06R
6HR MIN TEMP:  72; 6HR MAX TEMP:  83;

MANHATTAN      CLEAR     70  66  87 CALM      30.07R
EMPORIA        MOCLDY    74  72  93 E3        30.06R
CHANUTE        CLOUDY    76  73  91 E6        30.04R
WICHITA        MOCLDY    77  71  82 E6        30.06R
OMAHA          CLEAR     73  66  78 CALM      30.09R
LINCOLN        CLEAR     67  63  87 N5        30.11R
FALLS CITY     CLEAR     72  67  84 CALM      30.07R
LAMONI         CLEAR     69  64  84 N3        30.08F
DES MOINES     CLEAR     74  65  73 CALM      30.07F

$$





USA.gov is the U.S. government's official web portal to all federal, state and local government web resources and services.